Weather History for Eureka Airport, NV

Change the Weather History Date:

Thursday, March 7, 2013

  Actual Average Record
Temperature  
Mean Temperature 36 °F -  
Max Temperature 44 °F - - ()
Min Temperature 28 °F - - ()
Degree Days  
Heating Degree Days 29    
Moisture  
Dew Point 28 °F    
Average Humidity 79    
Maximum Humidity 100    
Minimum Humidity 57    
Precipitation  
Precipitation 0.00 in - - ()
Sea Level Pressure  
Sea Level Pressure 29.88 in    
Wind  
Wind Speed 4 mph (NNE)    
Max Wind Speed 15 mph    
Max Gust Speed 20 mph    
Visibility 8 miles    
Events      
T = Trace of Precipitation, MM = Missing Value Source: NWS Daily Summary

Daily Weather History Graph

Daily Weather History Graph

Search for Another Location

Airport:

Trip Planner

Search our weather history database for the weather conditions in past years. The results will help you decide how hot, cold, wet, or windy it might be!

Date:

Astronomy

Mar. 07, 2013 Rise Set
Actual Time 6:07 AM PST 5:43 PM PST
Civil Twilight 5:40 AM PST 6:09 PM PST
Nautical Twilight 5:09 AM PST 6:41 PM PST
Astronomical Twilight 4:38 AM PST 7:12 PM PST
Moon 3:09 AM PST (3/7) 1:36 PM PST (3/7)
Length of Visible Light 12h 29m
Length of Day
11h 35m
Waning Crescent, 19% of the Moon is Illuminated
Mar 7
Waning Crescent
Mar 11
New
Mar 19
First Quarter
Mar 27
Full
Apr 2
Last Quarter

Hourly Weather History & Observations

Time (PST) Temp. Windchill Dew Point Humidity Pressure Visibility Wind Dir Wind Speed Gust Speed Precip Events Conditions
12:15 AM 32.0 °F - 24.8 °F 75% 29.95 in 3.0 mi Calm Calm - N/A   Overcast
12:35 AM 32.0 °F - 24.8 °F 75% 29.94 in 3.0 mi Calm Calm - N/A   Overcast
12:55 AM 32.0 °F - 24.8 °F 75% 29.95 in 3.0 mi Calm Calm - N/A   Overcast
1:15 AM 32.0 °F - 24.8 °F 75% 29.94 in 3.0 mi Calm Calm - N/A   Overcast
1:35 AM 32.0 °F - 24.8 °F 75% 29.93 in 4.0 mi Calm Calm - N/A   Overcast
1:55 AM 32.0 °F - 26.6 °F 80% 29.92 in 4.0 mi Calm Calm - N/A   Overcast
2:15 AM 32.0 °F 28.7 °F 26.6 °F 80% 29.91 in 4.0 mi NNW 3.5 mph - N/A   Overcast
2:35 AM 32.0 °F 28.7 °F 24.8 °F 75% 29.90 in 4.0 mi NNW 3.5 mph - N/A   Overcast
2:55 AM 30.2 °F 26.7 °F 23.0 °F 75% 29.90 in 8.0 mi NW 3.5 mph - N/A   Overcast
3:15 AM 32.0 °F 26.4 °F 23.0 °F 69% 29.91 in 10.0 mi NNW 5.8 mph - N/A   Overcast
3:35 AM 32.0 °F 26.4 °F 23.0 °F 69% 29.90 in 10.0 mi NNW 5.8 mph - N/A   Overcast
3:55 AM 32.0 °F 27.5 °F 23.0 °F 69% 29.91 in 10.0 mi NNW 4.6 mph - N/A   Overcast
4:15 AM 32.0 °F 27.5 °F 19.4 °F 60% 29.91 in 10.0 mi NNW 4.6 mph - N/A   Overcast
4:35 AM 32.0 °F 27.5 °F 19.4 °F 60% 29.91 in 10.0 mi NNW 4.6 mph - N/A   Overcast
4:55 AM 32.0 °F 27.5 °F 19.4 °F 60% 29.91 in 10.0 mi North 4.6 mph - N/A   Overcast
5:15 AM 30.2 °F 26.7 °F 21.2 °F 69% 29.92 in 10.0 mi North 3.5 mph - N/A   Overcast
5:35 AM 30.2 °F - 23.0 °F 75% 29.92 in 10.0 mi Calm Calm - N/A   Overcast
5:55 AM 30.2 °F - 23.0 °F 75% 29.92 in 10.0 mi Calm Calm - N/A   Overcast
6:15 AM 32.0 °F - 23.0 °F 69% 29.92 in 6.0 mi Calm Calm - N/A   Overcast
6:35 AM 28.4 °F - 24.8 °F 86% 29.92 in 0.8 mi Calm Calm - N/A   Overcast
6:55 AM 28.4 °F - 24.8 °F 86% 29.92 in 1.8 mi Calm Calm - N/A   Mostly Cloudy
7:15 AM 28.4 °F - 26.6 °F 93% 29.93 in 1.5 mi Calm Calm - N/A   Mostly Cloudy
7:35 AM 28.4 °F - 26.6 °F 93% 29.93 in 1.5 mi Calm Calm - N/A   Mostly Cloudy
7:55 AM 30.2 °F - 26.6 °F 86% 29.93 in 5.0 mi Calm Calm - N/A   Scattered Clouds
8:15 AM 30.2 °F - 26.6 °F 86% 29.93 in 5.0 mi Calm Calm - N/A   Mostly Cloudy
8:35 AM 30.2 °F 26.7 °F 26.6 °F 86% 29.92 in 5.0 mi North 3.5 mph - N/A   Overcast
8:55 AM 32.0 °F 27.5 °F 26.6 °F 80% 29.92 in 5.0 mi North 4.6 mph - N/A   Overcast
9:15 AM 32.0 °F 27.5 °F 26.6 °F 80% 29.92 in 5.0 mi NNE 4.6 mph - N/A   Overcast
9:35 AM 32.0 °F 27.5 °F 26.6 °F 80% 29.92 in 1.8 mi North 4.6 mph - N/A   Mostly Cloudy
9:55 AM 32.0 °F 27.5 °F 28.4 °F 87% 29.91 in 1.5 mi North 4.6 mph - N/A   Mostly Cloudy
10:15 AM 32.0 °F 27.5 °F 28.4 °F 87% 29.91 in 2.5 mi North 4.6 mph - N/A   Mostly Cloudy
10:35 AM 33.8 °F 28.6 °F 28.4 °F 81% 29.91 in 5.0 mi NNE 5.8 mph - N/A   Mostly Cloudy
10:55 AM 33.8 °F 27.7 °F 28.4 °F 81% 29.90 in 7.0 mi NE 6.9 mph - N/A   Partly Cloudy
11:15 AM 35.6 °F 29.9 °F 28.4 °F 75% 29.90 in 7.0 mi NNE 6.9 mph - N/A   Clear
11:35 AM 37.4 °F 32.8 °F 30.2 °F 75% 29.89 in 7.0 mi North 5.8 mph - N/A   Mostly Cloudy
11:55 AM 39.2 °F 35.0 °F 30.2 °F 70% 29.88 in 8.0 mi NNE 5.8 mph - N/A   Scattered Clouds
12:15 PM 41.0 °F 36.4 °F 32.0 °F 70% 29.88 in 9.0 mi North 6.9 mph - N/A   Mostly Cloudy
12:35 PM 41.0 °F 33.5 °F 30.2 °F 65% 29.87 in 5.0 mi SE 13.8 mph - N/A   Mostly Cloudy
12:55 PM 41.0 °F 34.3 °F 30.2 °F 65% 29.86 in 8.0 mi SSE 11.5 mph - N/A   Mostly Cloudy
1:15 PM 41.0 °F 33.5 °F 32.0 °F 70% 29.85 in 10.0 mi SSE 13.8 mph - N/A   Mostly Cloudy
1:35 PM 41.0 °F 34.3 °F 32.0 °F 70% 29.84 in 9.0 mi SSE 11.5 mph - N/A   Mostly Cloudy
1:55 PM 42.8 °F 35.8 °F 32.0 °F 66% 29.83 in 8.0 mi SSE 13.8 mph - N/A   Partly Cloudy
2:15 PM 42.8 °F 36.2 °F 32.0 °F 66% 29.83 in 7.0 mi SSE 12.7 mph 19.6 mph N/A   Clear
2:35 PM 42.8 °F 35.4 °F 32.0 °F 66% 29.83 in 10.0 mi SE 15.0 mph - N/A   Clear
2:55 PM 42.8 °F 37.0 °F 32.0 °F 66% 29.83 in 9.0 mi SE 10.4 mph - N/A   Mostly Cloudy
3:15 PM 44.6 °F 38.8 °F 30.2 °F 57% 29.82 in 9.0 mi SE 11.5 mph - N/A   Scattered Clouds
3:35 PM 44.6 °F 39.2 °F 30.2 °F 57% 29.81 in 9.0 mi SE 10.4 mph - N/A   Partly Cloudy
3:55 PM 42.8 °F 35.8 °F 30.2 °F 61% 29.81 in 10.0 mi SE 13.8 mph - N/A   Partly Cloudy
4:15 PM 41.0 °F 33.9 °F 28.4 °F 61% 29.82 in 9.0 mi SSE 12.7 mph - N/A   Mostly Cloudy
4:35 PM 39.2 °F 33.6 °F 30.2 °F 70% 29.83 in 9.0 mi SW 8.1 mph - N/A   Overcast
4:55 PM 39.2 °F 30.8 °F 28.4 °F 65% 29.83 in 10.0 mi WSW 15.0 mph - N/A   Overcast
5:15 PM 37.4 °F 29.8 °F 30.2 °F 75% 29.83 in 10.0 mi West 11.5 mph - N/A   Overcast
5:35 PM 37.4 °F 33.8 °F 30.2 °F 75% 29.83 in 10.0 mi West 4.6 mph - N/A   Overcast
5:55 PM 37.4 °F 34.9 °F 30.2 °F 75% 29.83 in 10.0 mi West 3.5 mph - N/A   Overcast
6:15 PM 35.6 °F 31.7 °F 30.2 °F 81% 29.84 in 10.0 mi East 4.6 mph - N/A   Overcast
6:35 PM 35.6 °F 29.9 °F 32.0 °F 87% 29.84 in 10.0 mi NNE 6.9 mph - N/A   Overcast
6:55 PM 35.6 °F 31.7 °F 32.0 °F 87% 29.85 in 10.0 mi NNE 4.6 mph - N/A   Overcast
7:15 PM 33.8 °F 27.0 °F 32.0 °F 93% 29.85 in 10.0 mi NNW 8.1 mph - N/A   Overcast
7:35 PM 32.0 °F 25.6 °F 32.0 °F 100% 29.85 in 10.0 mi North 6.9 mph - N/A   Overcast
7:55 PM 32.0 °F 26.4 °F 32.0 °F 100% 29.86 in 10.0 mi NNW 5.8 mph - N/A   Overcast
8:15 PM 32.0 °F 24.8 °F 32.0 °F 100% 29.86 in 10.0 mi North 8.1 mph - N/A   Overcast
8:35 PM 32.0 °F 26.4 °F 32.0 °F 100% 29.86 in 10.0 mi North 5.8 mph - N/A   Overcast
8:55 PM 32.0 °F 24.8 °F 32.0 °F 100% 29.86 in 10.0 mi North 8.1 mph - N/A   Overcast
9:15 PM 32.0 °F 28.7 °F 32.0 °F 100% 29.86 in 10.0 mi NNE 3.5 mph - N/A   Overcast
9:35 PM 32.0 °F 27.5 °F 30.2 °F 93% 29.86 in 10.0 mi ENE 4.6 mph - N/A   Overcast
9:55 PM 32.0 °F 26.4 °F 30.2 °F 93% 29.86 in 10.0 mi NNE 5.8 mph - N/A   Overcast
10:15 PM 32.0 °F 26.4 °F 30.2 °F 93% 29.86 in 10.0 mi ENE 5.8 mph - N/A   Overcast
10:35 PM 32.0 °F 28.7 °F 30.2 °F 93% 29.85 in 10.0 mi ENE 3.5 mph - N/A   Overcast
10:55 PM 32.0 °F 28.7 °F 30.2 °F 93% 29.85 in 10.0 mi ENE 3.5 mph - N/A   Overcast
11:15 PM 32.0 °F 28.7 °F 30.2 °F 93% 29.85 in 10.0 mi NNE 3.5 mph - N/A   Overcast
11:35 PM 32.0 °F 27.5 °F 30.2 °F 93% 29.84 in 10.0 mi North 4.6 mph - N/A   Overcast
11:55 PM 32.0 °F 27.5 °F 30.2 °F 93% 29.84 in 10.0 mi ENE 4.6 mph - N/A   Overcast